Tracking 25949 objects as of 9-Aug-2022
HD Live streaming from Space Station
objects crossing your sky now

STARLINK-3859

Track STARLINK-3859 now!
10-day predictions
STARLINK-3859 is classified as:


NORAD ID: 52470
Int'l Code: 2022-049V
Perigee: 545.3 km
Apogee: 548.5 km
Inclination: 53.2 °
Period: 95.4 minutes
Semi major axis: 6917 km
RCS: Unknown
Launch date: May 6, 2022
Source: United States (US)
Launch site: AIR FORCE EASTERN TEST RANGE (AFETR)
aabbcc
Your satellite tracking list
Your tracking list is empty




NASA's NSSDC Master Catalog

Two Line Element Set (TLE):
1 52470U 22049V   22221.25001157  .00000957  00000-0  78254-4 0  9996
2 52470  53.2155 172.9289 0002360  57.9265 198.9643 15.08834225 14883
Source of the keplerian elements: AFSPC